Year,Month,Day,Hour,Minute,Value (Times are PST for temperature in C)
2019,09,30,00,00,11.20
2019,09,30,00,01,11.20
2019,09,30,00,02,11.20
2019,09,30,00,03,11.20
2019,09,30,00,04,11.20
2019,09,30,00,05,11.20
2019,09,30,00,06,11.20
2019,09,30,00,07,11.20
2019,09,30,00,08,11.20
2019,09,30,00,09,11.20
2019,09,30,00,10,11.20
2019,09,30,00,11,11.20
2019,09,30,00,12,11.20
2019,09,30,00,13,11.20
2019,09,30,00,14,11.10
2019,09,30,00,15,11.10
2019,09,30,00,16,11.10
2019,09,30,00,17,11.10
2019,09,30,00,18,11.10
2019,09,30,00,19,11.10
2019,09,30,00,20,11.10
2019,09,30,00,21,11.00
2019,09,30,00,22,11.00
2019,09,30,00,23,11.00
2019,09,30,00,24,11.00
2019,09,30,00,25,11.00
2019,09,30,00,26,11.00
2019,09,30,00,27,11.00
2019,09,30,00,28,11.00
2019,09,30,00,29,11.00
2019,09,30,00,30,11.00
2019,09,30,00,31,11.00
2019,09,30,00,32,11.00
2019,09,30,00,33,11.00
2019,09,30,00,34,11.00
2019,09,30,00,35,11.00
2019,09,30,00,36,11.00
2019,09,30,00,37,11.00
2019,09,30,00,38,11.00
2019,09,30,00,39,11.00
2019,09,30,00,40,11.00
2019,09,30,00,41,11.00
2019,09,30,00,42,11.00
2019,09,30,00,43,11.00
2019,09,30,00,44,11.00
2019,09,30,00,45,11.00
2019,09,30,00,46,11.00
2019,09,30,00,47,11.00
2019,09,30,00,48,11.00
2019,09,30,00,49,11.00
2019,09,30,00,50,11.00
2019,09,30,00,51,11.00
2019,09,30,00,52,11.00
2019,09,30,00,53,11.00
2019,09,30,00,54,11.00
2019,09,30,00,55,11.00
2019,09,30,00,56,11.00
2019,09,30,00,57,11.00
2019,09,30,00,58,11.10
2019,09,30,00,59,11.10
2019,09,30,01,00,11.10
2019,09,30,01,01,11.10
2019,09,30,01,02,11.10
2019,09,30,01,03,11.10
2019,09,30,01,04,11.10
2019,09,30,01,05,11.10
2019,09,30,01,06,11.10
2019,09,30,01,07,11.10
2019,09,30,01,08,11.10
2019,09,30,01,09,11.10
2019,09,30,01,10,11.10
2019,09,30,01,11,11.10
2019,09,30,01,12,11.10
2019,09,30,01,13,11.10
2019,09,30,01,14,11.00
2019,09,30,01,15,11.00
2019,09,30,01,16,11.00
2019,09,30,01,17,11.00
2019,09,30,01,18,10.90
2019,09,30,01,19,10.90
2019,09,30,01,20,10.90
2019,09,30,01,21,10.90
2019,09,30,01,22,10.90
2019,09,30,01,23,10.80
2019,09,30,01,24,10.80
2019,09,30,01,25,10.80
2019,09,30,01,26,10.80
2019,09,30,01,27,10.80
2019,09,30,01,28,10.70
2019,09,30,01,29,10.70
2019,09,30,01,30,10.70
2019,09,30,01,31,10.70
2019,09,30,01,32,10.70
2019,09,30,01,33,10.60
2019,09,30,01,34,10.60
2019,09,30,01,35,10.60
2019,09,30,01,36,10.60
2019,09,30,01,37,10.50
2019,09,30,01,38,10.50
2019,09,30,01,39,10.50
2019,09,30,01,40,10.50
2019,09,30,01,41,10.40
2019,09,30,01,42,10.40
2019,09,30,01,43,10.40
2019,09,30,01,44,10.40
2019,09,30,01,45,10.40
2019,09,30,01,46,10.30
2019,09,30,01,47,10.30
2019,09,30,01,48,10.30
2019,09,30,01,49,10.30
2019,09,30,01,50,10.30
2019,09,30,01,51,10.30
2019,09,30,01,52,10.20
2019,09,30,01,53,10.20
2019,09,30,01,54,10.20
2019,09,30,01,55,10.20
2019,09,30,01,56,10.20
2019,09,30,01,57,10.20
2019,09,30,01,58,10.10
2019,09,30,01,59,10.10
2019,09,30,02,00,10.10
2019,09,30,02,01,10.00
2019,09,30,02,02,10.00
2019,09,30,02,03,10.00
2019,09,30,02,04,9.90
2019,09,30,02,05,9.90
2019,09,30,02,06,9.90
2019,09,30,02,07,9.90
2019,09,30,02,08,9.90
2019,09,30,02,09,9.90
2019,09,30,02,10,9.80
2019,09,30,02,11,9.80
2019,09,30,02,12,9.80
2019,09,30,02,13,9.80
2019,09,30,02,14,9.80
2019,09,30,02,15,9.80
2019,09,30,02,16,9.70
2019,09,30,02,17,9.70
2019,09,30,02,18,9.70
2019,09,30,02,19,9.70
2019,09,30,02,20,9.70
2019,09,30,02,21,9.70
2019,09,30,02,22,9.70
2019,09,30,02,23,9.70
2019,09,30,02,24,9.70
2019,09,30,02,25,9.60
2019,09,30,02,26,9.60
2019,09,30,02,27,9.60
2019,09,30,02,28,9.60
2019,09,30,02,29,9.60
2019,09,30,02,30,9.60
2019,09,30,02,31,9.50
2019,09,30,02,32,9.50
2019,09,30,02,33,9.50
2019,09,30,02,34,9.50
2019,09,30,02,35,9.50
2019,09,30,02,36,9.40
2019,09,30,02,37,9.40
2019,09,30,02,38,9.40
2019,09,30,02,39,9.50
2019,09,30,02,40,9.50
2019,09,30,02,41,9.50
2019,09,30,02,42,9.50
2019,09,30,02,43,9.50
2019,09,30,02,44,9.60
2019,09,30,02,45,9.60
2019,09,30,02,46,9.60
2019,09,30,02,47,9.60
2019,09,30,02,48,9.70
2019,09,30,02,49,9.70
2019,09,30,02,50,9.80
2019,09,30,02,51,9.80
2019,09,30,02,52,9.90
2019,09,30,02,53,9.90
2019,09,30,02,54,10.00
2019,09,30,02,55,10.00
2019,09,30,02,56,10.10
2019,09,30,02,57,10.10
2019,09,30,02,58,10.10
2019,09,30,02,59,10.10
2019,09,30,03,00,10.10
2019,09,30,03,01,10.20
2019,09,30,03,02,10.20
2019,09,30,03,03,10.20
2019,09,30,03,04,10.20
2019,09,30,03,05,10.20
2019,09,30,03,06,10.20
2019,09,30,03,07,10.20
2019,09,30,03,08,10.20
2019,09,30,03,09,10.20
2019,09,30,03,10,10.20
2019,09,30,03,11,10.20
2019,09,30,03,12,10.20
2019,09,30,03,13,10.20
2019,09,30,03,14,10.20
2019,09,30,03,15,10.20
2019,09,30,03,16,10.20
2019,09,30,03,17,10.10
2019,09,30,03,18,10.10
2019,09,30,03,19,10.10
2019,09,30,03,20,10.10
2019,09,30,03,21,10.10
2019,09,30,03,22,10.10
2019,09,30,03,23,10.10
2019,09,30,03,24,10.10
2019,09,30,03,25,10.00
2019,09,30,03,26,10.00
2019,09,30,03,27,10.00
2019,09,30,03,28,10.00
2019,09,30,03,29,10.00
2019,09,30,03,30,10.00
2019,09,30,03,31,10.00
2019,09,30,03,32,10.00
2019,09,30,03,33,10.00
2019,09,30,03,34,10.00
2019,09,30,03,35,9.90
2019,09,30,03,36,9.90
2019,09,30,03,37,9.90
2019,09,30,03,38,9.90
2019,09,30,03,39,9.80
2019,09,30,03,40,9.80
2019,09,30,03,41,9.80
2019,09,30,03,42,9.80
2019,09,30,03,43,9.70
2019,09,30,03,44,9.70
2019,09,30,03,45,9.70
2019,09,30,03,46,9.70
2019,09,30,03,47,9.70
2019,09,30,03,48,9.60
2019,09,30,03,49,9.60
2019,09,30,03,50,9.60
2019,09,30,03,51,9.60
2019,09,30,03,52,9.60
2019,09,30,03,53,9.60
2019,09,30,03,54,9.50
2019,09,30,03,55,9.50
2019,09,30,03,56,9.50
2019,09,30,03,57,9.50
2019,09,30,03,58,9.50
2019,09,30,03,59,9.40
2019,09,30,04,00,9.40
2019,09,30,04,01,9.40
2019,09,30,04,02,9.40
2019,09,30,04,03,9.40
2019,09,30,04,04,9.40
2019,09,30,04,05,9.40
2019,09,30,04,06,9.40
2019,09,30,04,07,9.40
2019,09,30,04,08,9.40
2019,09,30,04,09,9.40
2019,09,30,04,10,9.40
2019,09,30,04,11,9.40
2019,09,30,04,12,9.40
2019,09,30,04,13,9.40
2019,09,30,04,14,9.40
2019,09,30,04,15,9.40
2019,09,30,04,16,9.40
2019,09,30,04,17,9.50
2019,09,30,04,18,9.50
2019,09,30,04,19,9.60
2019,09,30,04,20,9.60
2019,09,30,04,21,9.70
2019,09,30,04,22,9.70
2019,09,30,04,23,9.70
2019,09,30,04,24,9.70
2019,09,30,04,25,9.70
2019,09,30,04,26,9.70
2019,09,30,04,27,9.70
2019,09,30,04,28,9.70
2019,09,30,04,29,9.70
2019,09,30,04,30,9.70
2019,09,30,04,31,9.70
2019,09,30,04,32,9.70
2019,09,30,04,33,9.70
2019,09,30,04,34,9.70
2019,09,30,04,35,9.70
2019,09,30,04,36,9.70
2019,09,30,04,37,9.70
2019,09,30,04,38,9.70
2019,09,30,04,39,9.70
2019,09,30,04,40,9.70
2019,09,30,04,41,9.60
2019,09,30,04,42,9.60
2019,09,30,04,43,9.60
2019,09,30,04,44,9.60
2019,09,30,04,45,9.60
2019,09,30,04,46,9.50
2019,09,30,04,47,9.50
2019,09,30,04,48,9.50
2019,09,30,04,49,9.40
2019,09,30,04,50,9.40
2019,09,30,04,51,9.40
2019,09,30,04,52,9.40
2019,09,30,04,53,9.30
2019,09,30,04,54,9.30
2019,09,30,04,55,9.30
2019,09,30,04,56,9.30
2019,09,30,04,57,9.30
2019,09,30,04,58,9.30
2019,09,30,04,59,9.30
2019,09,30,05,00,9.30
2019,09,30,05,01,9.30
2019,09,30,05,02,9.20
2019,09,30,05,03,9.20
2019,09,30,05,04,9.20
2019,09,30,05,05,9.20
2019,09,30,05,06,9.20
2019,09,30,05,07,9.20
2019,09,30,05,08,9.20
2019,09,30,05,09,9.30
2019,09,30,05,10,9.30
2019,09,30,05,11,9.30
2019,09,30,05,12,9.30
2019,09,30,05,13,9.30
2019,09,30,05,14,9.20
2019,09,30,05,15,9.20
2019,09,30,05,16,9.20
2019,09,30,05,17,9.10
2019,09,30,05,18,9.10
2019,09,30,05,19,9.10
2019,09,30,05,20,9.10
2019,09,30,05,21,9.00
2019,09,30,05,22,9.00
2019,09,30,05,23,9.00
2019,09,30,05,24,8.90
2019,09,30,05,25,8.90
2019,09,30,05,26,8.90
2019,09,30,05,27,8.90
2019,09,30,05,28,8.80
2019,09,30,05,29,8.80
2019,09,30,05,30,8.80
2019,09,30,05,31,8.70
2019,09,30,05,32,8.70
2019,09,30,05,33,8.60
2019,09,30,05,34,8.60
2019,09,30,05,35,8.50
2019,09,30,05,36,8.50
2019,09,30,05,37,8.50
2019,09,30,05,38,8.50
2019,09,30,05,39,8.40
2019,09,30,05,40,8.40
2019,09,30,05,41,8.40
2019,09,30,05,42,8.40
2019,09,30,05,43,8.40
2019,09,30,05,44,8.30
2019,09,30,05,45,8.40
2019,09,30,05,46,8.30
2019,09,30,05,47,8.40
2019,09,30,05,48,8.40
2019,09,30,05,49,8.30
2019,09,30,05,50,8.30
2019,09,30,05,51,8.30
2019,09,30,05,52,8.30
2019,09,30,05,53,8.30
2019,09,30,05,54,8.30
2019,09,30,05,55,8.30
2019,09,30,05,56,8.30
2019,09,30,05,57,8.20
2019,09,30,05,58,8.20
2019,09,30,05,59,8.20
2019,09,30,06,00,8.20
2019,09,30,06,01,8.20
2019,09,30,06,02,8.30
2019,09,30,06,03,8.30
2019,09,30,06,04,8.30
2019,09,30,06,05,8.30
2019,09,30,06,06,8.30
2019,09,30,06,07,8.30
2019,09,30,06,08,8.30
2019,09,30,06,09,8.30
2019,09,30,06,10,8.30
2019,09,30,06,11,8.30
2019,09,30,06,12,8.30
2019,09,30,06,13,8.30
2019,09,30,06,14,8.30
2019,09,30,06,15,8.30
2019,09,30,06,16,8.30
2019,09,30,06,17,8.30
2019,09,30,06,18,8.30
2019,09,30,06,19,8.30
2019,09,30,06,20,8.30
2019,09,30,06,21,8.30
2019,09,30,06,22,8.30
2019,09,30,06,23,8.30
2019,09,30,06,24,8.30
2019,09,30,08,05,8.40
2019,09,30,08,06,8.40
2019,09,30,08,07,8.40
2019,09,30,08,08,8.50
2019,09,30,08,09,8.50
2019,09,30,08,10,8.60
2019,09,30,08,11,8.60
2019,09,30,08,12,8.60
2019,09,30,08,13,8.70
2019,09,30,08,14,8.70
2019,09,30,08,15,8.70
2019,09,30,08,16,8.70
2019,09,30,08,17,8.80
2019,09,30,08,18,8.80
2019,09,30,08,19,8.80
2019,09,30,08,20,8.80
2019,09,30,08,21,8.90
2019,09,30,08,22,8.90
2019,09,30,08,23,8.90
2019,09,30,08,24,8.90
2019,09,30,08,25,9.00
2019,09,30,08,26,9.00
2019,09,30,08,27,9.00
2019,09,30,08,28,9.10
2019,09,30,08,29,9.10
2019,09,30,08,30,9.10
2019,09,30,08,31,9.20
2019,09,30,08,32,9.20
2019,09,30,08,33,9.20
2019,09,30,08,34,9.20
2019,09,30,08,35,9.30
2019,09,30,08,36,9.30
2019,09,30,08,37,9.30
2019,09,30,08,38,9.40
2019,09,30,08,39,9.40
2019,09,30,08,40,9.40
2019,09,30,08,41,9.50
2019,09,30,08,42,9.60
2019,09,30,08,43,9.60
2019,09,30,08,44,9.70
2019,09,30,08,45,9.70
2019,09,30,08,46,9.80
2019,09,30,08,47,9.80
2019,09,30,08,48,9.80
2019,09,30,08,49,9.90
2019,09,30,08,50,9.90
2019,09,30,08,51,10.00
2019,09,30,08,52,10.00
2019,09,30,08,53,10.10
2019,09,30,08,54,10.10
2019,09,30,08,55,10.10
2019,09,30,08,56,10.20
2019,09,30,08,57,10.20
2019,09,30,08,58,10.20
2019,09,30,08,59,10.30
2019,09,30,09,00,10.30
2019,09,30,09,01,10.30
2019,09,30,09,02,10.30
2019,09,30,09,03,10.40
2019,09,30,09,04,10.40
2019,09,30,09,05,10.40
2019,09,30,09,06,10.40
2019,09,30,09,07,10.50
2019,09,30,09,08,10.50
2019,09,30,09,09,10.60
2019,09,30,09,10,10.60
2019,09,30,09,11,10.60
2019,09,30,09,12,10.60
2019,09,30,09,13,10.60
2019,09,30,09,14,10.70
2019,09,30,09,15,10.70
2019,09,30,09,16,10.70
2019,09,30,09,17,10.70
2019,09,30,09,18,10.70
2019,09,30,09,19,10.80
2019,09,30,09,20,10.80
2019,09,30,09,21,10.80
2019,09,30,09,22,10.80
2019,09,30,09,23,10.80
2019,09,30,09,24,10.80
2019,09,30,09,25,10.80
2019,09,30,09,26,10.80
2019,09,30,09,27,10.80
2019,09,30,09,28,10.80
2019,09,30,09,29,10.90
2019,09,30,09,30,10.90
2019,09,30,09,31,10.90
2019,09,30,09,32,10.90
2019,09,30,09,33,11.00
2019,09,30,09,34,11.00
2019,09,30,09,35,11.00
2019,09,30,09,36,11.10
2019,09,30,09,37,11.10
2019,09,30,09,38,11.10
2019,09,30,09,39,11.10
2019,09,30,09,40,11.10
2019,09,30,09,41,11.20
2019,09,30,09,42,11.20
2019,09,30,09,43,11.20
2019,09,30,09,44,11.20
2019,09,30,09,45,11.30
2019,09,30,09,46,11.30
2019,09,30,09,47,11.30
2019,09,30,09,48,11.30
2019,09,30,09,49,11.30
2019,09,30,09,50,11.30
2019,09,30,09,51,11.30
2019,09,30,09,52,11.30
2019,09,30,09,53,11.30
2019,09,30,09,54,11.40
2019,09,30,09,55,11.40
2019,09,30,09,56,11.40
2019,09,30,09,57,11.40
2019,09,30,09,58,11.40
2019,09,30,09,59,11.40
2019,09,30,10,00,11.50
2019,09,30,10,01,11.50
2019,09,30,10,02,11.60
2019,09,30,10,03,11.60
2019,09,30,10,04,11.60
2019,09,30,10,05,11.60
2019,09,30,10,06,11.60
2019,09,30,10,07,11.60
2019,09,30,10,08,11.70
2019,09,30,10,09,11.70
2019,09,30,10,10,11.70
2019,09,30,10,11,11.70
2019,09,30,10,12,11.80
2019,09,30,10,13,11.80
2019,09,30,10,14,11.80
2019,09,30,10,15,11.80
2019,09,30,10,16,11.80
2019,09,30,10,17,11.80
2019,09,30,10,18,11.80
2019,09,30,10,19,11.80
2019,09,30,10,20,11.80
2019,09,30,10,21,11.90
2019,09,30,10,22,11.90
2019,09,30,10,23,11.90
2019,09,30,10,24,11.90
2019,09,30,10,25,12.00
2019,09,30,10,26,12.00
2019,09,30,10,27,12.00
2019,09,30,10,28,12.10
2019,09,30,10,29,12.10
2019,09,30,10,30,12.10
2019,09,30,10,31,12.20
2019,09,30,10,32,12.20
2019,09,30,10,33,12.20
2019,09,30,10,34,12.20
2019,09,30,10,35,12.20
2019,09,30,10,36,12.20
2019,09,30,10,37,12.20
2019,09,30,10,38,12.20
2019,09,30,10,39,12.20
2019,09,30,10,40,12.30
2019,09,30,10,41,12.30
2019,09,30,10,42,12.30
2019,09,30,10,43,12.30
2019,09,30,10,44,12.30
2019,09,30,10,45,12.20
2019,09,30,10,46,12.30
2019,09,30,10,47,12.30
2019,09,30,10,48,12.30
2019,09,30,10,49,12.30
2019,09,30,10,50,12.30
2019,09,30,10,51,12.30
2019,09,30,10,52,12.30
2019,09,30,10,53,12.40
2019,09,30,10,54,12.40
2019,09,30,10,55,12.40
2019,09,30,10,56,12.40
2019,09,30,10,57,12.40
2019,09,30,10,58,12.40
2019,09,30,10,59,12.40
2019,09,30,11,00,12.40
2019,09,30,11,01,12.50
2019,09,30,11,02,12.50
2019,09,30,11,03,12.50
2019,09,30,11,04,12.50
2019,09,30,11,05,12.50
2019,09,30,11,06,12.50
2019,09,30,11,07,12.50
2019,09,30,11,08,12.50
2019,09,30,11,09,12.50
2019,09,30,11,10,12.50
2019,09,30,11,11,12.50
2019,09,30,11,12,12.60
2019,09,30,11,13,12.70
2019,09,30,11,14,12.70
2019,09,30,11,15,12.70
2019,09,30,11,16,12.80
2019,09,30,11,17,12.80
2019,09,30,11,18,12.80
2019,09,30,11,19,12.80
2019,09,30,11,20,12.80
2019,09,30,11,21,12.90
2019,09,30,11,22,12.90
2019,09,30,11,23,12.90
2019,09,30,11,24,12.90
2019,09,30,11,25,12.90
2019,09,30,11,26,13.00
2019,09,30,11,27,13.00
2019,09,30,11,28,13.00
2019,09,30,11,29,12.90
2019,09,30,11,30,12.90
2019,09,30,11,31,12.80
2019,09,30,11,32,12.80
2019,09,30,11,33,12.80
2019,09,30,11,34,12.90
2019,09,30,11,35,12.90
2019,09,30,11,36,13.00
2019,09,30,11,37,13.10
2019,09,30,11,38,13.10
2019,09,30,11,39,13.20
2019,09,30,11,40,13.30
2019,09,30,11,41,13.30
2019,09,30,11,42,13.30
2019,09,30,11,43,13.30
2019,09,30,11,44,13.30
2019,09,30,11,45,13.30
2019,09,30,11,46,13.20
2019,09,30,11,47,13.20
2019,09,30,11,48,13.20
2019,09,30,11,49,13.20
2019,09,30,11,50,13.20
2019,09,30,11,51,13.30
2019,09,30,11,52,13.30
2019,09,30,11,53,13.20
2019,09,30,11,54,13.20
2019,09,30,11,55,13.20
2019,09,30,11,56,13.10
2019,09,30,11,57,13.10
2019,09,30,11,58,13.00
2019,09,30,11,59,13.00
2019,09,30,12,00,13.00
2019,09,30,12,01,13.00
2019,09,30,12,02,13.10
2019,09,30,12,03,13.10
2019,09,30,12,04,13.20
2019,09,30,12,05,13.20
2019,09,30,12,06,13.20
2019,09,30,12,07,13.20
2019,09,30,12,08,13.20
2019,09,30,12,09,13.20
2019,09,30,12,10,13.20
2019,09,30,12,11,13.20
2019,09,30,12,12,13.20
2019,09,30,12,13,13.30
2019,09,30,12,14,13.30
2019,09,30,12,15,13.30
2019,09,30,12,16,13.40
2019,09,30,12,17,13.40
2019,09,30,12,18,13.40
2019,09,30,12,19,13.40
2019,09,30,12,20,13.40
2019,09,30,12,21,13.50
2019,09,30,12,22,13.40
2019,09,30,12,23,13.50
2019,09,30,12,24,13.50
2019,09,30,12,25,13.60
2019,09,30,12,26,13.60
2019,09,30,12,27,13.60
2019,09,30,12,28,13.60
2019,09,30,12,29,13.60
2019,09,30,12,30,13.60
2019,09,30,12,31,13.70
2019,09,30,12,32,13.70
2019,09,30,12,33,13.60
2019,09,30,12,34,13.60
2019,09,30,12,35,13.60
2019,09,30,12,36,13.70
2019,09,30,12,37,13.70
2019,09,30,12,38,13.80
2019,09,30,12,39,13.80
2019,09,30,12,40,13.80
2019,09,30,12,41,13.90
2019,09,30,12,42,13.90
2019,09,30,12,43,13.90
2019,09,30,12,44,13.90
2019,09,30,12,45,13.90
2019,09,30,12,46,13.90
2019,09,30,12,47,13.90
2019,09,30,12,48,13.80
2019,09,30,12,49,13.80
2019,09,30,12,50,13.80
2019,09,30,12,51,13.80
2019,09,30,12,52,13.70
2019,09,30,12,53,13.70
2019,09,30,12,54,13.70
2019,09,30,12,55,13.70
2019,09,30,12,56,13.80
2019,09,30,12,57,13.80
2019,09,30,12,58,13.80
2019,09,30,12,59,13.80
2019,09,30,13,00,13.80
2019,09,30,13,01,13.80
2019,09,30,13,02,13.90
2019,09,30,13,03,13.90
2019,09,30,13,04,13.90
2019,09,30,13,05,13.90
2019,09,30,13,06,13.90
2019,09,30,13,07,13.90
2019,09,30,13,08,13.90
2019,09,30,13,09,13.90
2019,09,30,13,10,13.90
2019,09,30,13,11,13.90
2019,09,30,13,12,13.90
2019,09,30,13,13,13.90
2019,09,30,13,14,13.90
2019,09,30,13,15,13.80
2019,09,30,13,16,13.80
2019,09,30,13,17,13.80
2019,09,30,13,18,13.80
2019,09,30,13,19,13.80
2019,09,30,13,20,13.80
2019,09,30,13,21,13.80
2019,09,30,13,22,13.80
2019,09,30,13,23,13.80
2019,09,30,13,24,13.90
2019,09,30,13,25,13.90
2019,09,30,13,26,14.00
2019,09,30,13,27,14.00
2019,09,30,13,28,13.90
2019,09,30,13,29,13.90
2019,09,30,13,30,14.00
2019,09,30,13,31,14.00
2019,09,30,13,32,14.10
2019,09,30,13,33,14.10
2019,09,30,13,34,14.20
2019,09,30,13,35,14.30
2019,09,30,13,36,14.30
2019,09,30,13,37,14.30
2019,09,30,13,38,14.30
2019,09,30,13,39,14.20
2019,09,30,13,40,14.20
2019,09,30,13,41,14.10
2019,09,30,13,42,14.10
2019,09,30,13,43,14.10
2019,09,30,13,44,14.10
2019,09,30,13,45,14.10
2019,09,30,13,46,14.20
2019,09,30,13,47,14.20
2019,09,30,13,48,14.30
2019,09,30,13,49,14.30
2019,09,30,13,50,14.40
2019,09,30,13,51,14.40
2019,09,30,13,52,14.40
2019,09,30,13,53,14.40
2019,09,30,13,54,14.30
2019,09,30,13,55,14.30
2019,09,30,13,56,14.30
2019,09,30,13,57,14.30
2019,09,30,13,58,14.20
2019,09,30,13,59,14.20
2019,09,30,14,00,14.20
2019,09,30,14,01,14.30
2019,09,30,14,02,14.30
2019,09,30,14,03,14.30
2019,09,30,14,04,14.20
2019,09,30,14,05,14.10
2019,09,30,14,06,14.10
2019,09,30,14,07,14.10
2019,09,30,14,08,14.10
2019,09,30,14,09,14.10
2019,09,30,14,10,14.10
2019,09,30,14,11,14.00
2019,09,30,14,12,14.00
2019,09,30,14,13,14.00
2019,09,30,14,14,14.00
2019,09,30,14,15,14.10
2019,09,30,14,16,14.20
2019,09,30,14,17,14.20
2019,09,30,14,18,14.30
2019,09,30,14,19,14.30
2019,09,30,14,20,14.30
2019,09,30,14,21,14.30
2019,09,30,14,22,14.40
2019,09,30,14,23,14.40
2019,09,30,14,24,14.40
2019,09,30,14,25,14.30
2019,09,30,14,26,14.30
2019,09,30,14,27,14.30
2019,09,30,14,28,14.30
2019,09,30,14,29,14.40
2019,09,30,14,30,14.50
2019,09,30,14,31,14.60
2019,09,30,14,32,14.60
2019,09,30,14,33,14.50
2019,09,30,14,34,14.40
2019,09,30,14,35,14.40
2019,09,30,14,36,14.40
2019,09,30,14,37,14.40
2019,09,30,14,38,14.40
2019,09,30,14,39,14.40
2019,09,30,14,40,14.40
2019,09,30,14,41,14.50
2019,09,30,14,42,14.50
2019,09,30,14,43,14.60
2019,09,30,14,44,14.60
2019,09,30,14,45,14.70
2019,09,30,14,46,14.80
2019,09,30,14,47,14.80
2019,09,30,14,48,14.90
2019,09,30,14,49,14.80
2019,09,30,14,50,14.80
2019,09,30,14,51,14.90
2019,09,30,14,52,14.90
2019,09,30,14,53,14.90
2019,09,30,14,54,14.80
2019,09,30,14,55,14.80
2019,09,30,14,56,14.80
2019,09,30,14,57,14.80
2019,09,30,14,58,14.80
2019,09,30,14,59,14.90
2019,09,30,15,00,14.90
2019,09,30,15,01,15.00
2019,09,30,15,02,15.10
2019,09,30,15,03,15.20
2019,09,30,15,04,15.20
2019,09,30,15,05,15.20
2019,09,30,15,06,15.20
2019,09,30,15,07,15.20
2019,09,30,15,08,15.20
2019,09,30,15,09,15.10
2019,09,30,15,10,15.20
2019,09,30,15,11,15.20
2019,09,30,15,12,15.20
2019,09,30,15,13,15.20
2019,09,30,15,14,15.20
2019,09,30,15,15,15.20
2019,09,30,15,16,15.20
2019,09,30,15,17,15.20
2019,09,30,15,18,15.20
2019,09,30,15,19,15.30
2019,09,30,15,20,15.30
2019,09,30,15,21,15.30
2019,09,30,15,22,15.30
2019,09,30,15,23,15.30
2019,09,30,15,24,15.30
2019,09,30,15,25,15.30
2019,09,30,15,26,15.30
2019,09,30,15,27,15.30
2019,09,30,15,28,15.30
2019,09,30,15,29,15.30
2019,09,30,15,30,15.30
2019,09,30,15,31,15.30
2019,09,30,15,32,15.30
2019,09,30,15,33,15.30
2019,09,30,15,34,15.30
2019,09,30,15,35,15.30
2019,09,30,15,36,15.30
2019,09,30,15,37,15.20
2019,09,30,15,38,15.20
2019,09,30,15,39,15.20
2019,09,30,15,40,15.20
2019,09,30,15,41,15.10
2019,09,30,15,42,15.10
2019,09,30,15,43,15.00
2019,09,30,15,44,15.00
2019,09,30,15,45,14.90
2019,09,30,15,46,14.90
2019,09,30,15,47,14.90
2019,09,30,15,48,14.90
2019,09,30,15,49,14.90
2019,09,30,15,50,14.80
2019,09,30,15,51,14.80
2019,09,30,15,52,14.80
2019,09,30,15,53,14.80
2019,09,30,15,54,14.70
2019,09,30,15,55,14.70
2019,09,30,15,56,14.70
2019,09,30,15,57,14.80
2019,09,30,15,58,14.80
2019,09,30,15,59,14.80
2019,09,30,16,00,14.80
2019,09,30,16,01,14.80
2019,09,30,16,02,14.80
2019,09,30,16,03,14.80
2019,09,30,16,04,14.80
2019,09,30,16,05,14.80
2019,09,30,16,06,14.80
2019,09,30,16,07,14.80
2019,09,30,16,08,14.80
2019,09,30,16,09,14.80
2019,09,30,16,10,14.80
2019,09,30,16,11,14.80
2019,09,30,16,12,14.80
2019,09,30,16,13,14.90
2019,09,30,16,14,15.00
2019,09,30,16,15,15.00
2019,09,30,16,16,15.00
2019,09,30,16,17,15.00
2019,09,30,16,18,14.90
2019,09,30,16,19,14.80
2019,09,30,16,20,14.80
2019,09,30,16,21,14.80
2019,09,30,16,22,14.70
2019,09,30,16,23,14.70
2019,09,30,16,24,14.70
2019,09,30,16,25,14.70
2019,09,30,16,26,14.70
2019,09,30,16,27,14.70
2019,09,30,16,28,14.70
2019,09,30,16,29,14.70
2019,09,30,16,30,14.60
2019,09,30,16,31,14.50
2019,09,30,16,32,14.40
2019,09,30,16,33,14.40
2019,09,30,16,34,14.40
2019,09,30,16,35,14.30
2019,09,30,16,36,14.30
2019,09,30,16,37,14.30
2019,09,30,16,38,14.20
2019,09,30,16,39,14.20
2019,09,30,16,40,14.20
2019,09,30,16,41,14.30
2019,09,30,16,42,14.30
2019,09,30,16,43,14.40
2019,09,30,16,44,14.50
2019,09,30,16,45,14.50
2019,09,30,16,46,14.60
2019,09,30,16,47,14.60
2019,09,30,16,48,14.60
2019,09,30,16,49,14.60
2019,09,30,16,50,14.60
2019,09,30,16,51,14.60
2019,09,30,16,52,14.60
2019,09,30,16,53,14.60
2019,09,30,16,54,14.60
2019,09,30,16,55,14.60
2019,09,30,16,56,14.60
2019,09,30,16,57,14.60
2019,09,30,16,58,14.50
2019,09,30,16,59,14.50
2019,09,30,17,00,14.50
2019,09,30,17,01,14.40
2019,09,30,17,02,14.40
2019,09,30,17,03,14.30
2019,09,30,17,04,14.30
2019,09,30,17,05,14.30
2019,09,30,17,06,14.30
2019,09,30,17,07,14.30
2019,09,30,17,08,14.30
2019,09,30,17,09,14.30
2019,09,30,17,10,14.30
2019,09,30,17,11,14.30
2019,09,30,17,12,14.30
2019,09,30,17,13,14.30
2019,09,30,17,14,14.30
2019,09,30,17,15,14.30
2019,09,30,17,16,14.40
2019,09,30,17,17,14.40
2019,09,30,17,18,14.40
2019,09,30,17,19,14.30
2019,09,30,17,20,14.30
2019,09,30,17,21,14.30
2019,09,30,17,22,14.30
2019,09,30,17,23,14.30
2019,09,30,17,24,14.30
2019,09,30,17,25,14.40
2019,09,30,17,26,14.40
2019,09,30,17,27,14.40
2019,09,30,17,28,14.40
2019,09,30,17,29,14.30
2019,09,30,17,30,14.30
2019,09,30,17,31,14.30
2019,09,30,17,32,14.30
2019,09,30,17,33,14.30
2019,09,30,17,34,14.30
2019,09,30,17,35,14.30
2019,09,30,17,36,14.30
2019,09,30,17,37,14.20
2019,09,30,17,38,14.10
2019,09,30,17,39,14.00
2019,09,30,17,40,13.90
2019,09,30,17,41,13.80
2019,09,30,17,42,13.70
2019,09,30,17,43,13.70
2019,09,30,17,44,13.70
2019,09,30,17,45,13.70
2019,09,30,17,46,13.70
2019,09,30,17,47,13.80
2019,09,30,17,48,13.80
2019,09,30,17,49,13.80
2019,09,30,17,50,13.70
2019,09,30,17,51,13.60
2019,09,30,17,52,13.50
2019,09,30,17,53,13.50
2019,09,30,17,54,13.40
2019,09,30,17,55,13.30
2019,09,30,17,56,13.30
2019,09,30,17,57,13.30
2019,09,30,17,58,13.30
2019,09,30,17,59,13.30
2019,09,30,18,00,13.30
2019,09,30,18,01,13.30
2019,09,30,18,02,13.30
2019,09,30,18,03,13.30
2019,09,30,18,04,13.30
2019,09,30,18,05,13.30
2019,09,30,18,06,13.40
2019,09,30,18,07,13.40
2019,09,30,18,08,13.40
2019,09,30,18,09,13.40
2019,09,30,18,10,13.40
2019,09,30,18,11,13.40
2019,09,30,18,12,13.40
2019,09,30,18,13,13.50
2019,09,30,18,14,13.50
2019,09,30,18,15,13.60
2019,09,30,18,16,13.60
2019,09,30,18,17,13.70
2019,09,30,18,18,13.70
2019,09,30,18,19,13.70
2019,09,30,18,20,13.60
2019,09,30,18,21,13.60
2019,09,30,18,22,13.60
2019,09,30,18,23,13.60
2019,09,30,18,24,13.60
2019,09,30,18,25,13.60
2019,09,30,18,26,13.50
2019,09,30,18,27,13.50
2019,09,30,18,28,13.50
2019,09,30,18,29,13.40
2019,09,30,18,30,13.40
2019,09,30,18,31,13.30
2019,09,30,18,32,13.30
2019,09,30,18,33,13.20
2019,09,30,18,34,13.20
2019,09,30,18,35,13.20
2019,09,30,18,36,13.10
2019,09,30,18,37,13.10
2019,09,30,18,38,13.10
2019,09,30,18,39,13.00
2019,09,30,18,40,13.00
2019,09,30,18,41,12.90
2019,09,30,18,42,12.90
2019,09,30,18,43,12.90
2019,09,30,18,44,12.80
2019,09,30,18,45,12.80
2019,09,30,18,46,12.80
2019,09,30,18,47,12.80
2019,09,30,18,48,12.80
2019,09,30,18,49,12.80
2019,09,30,18,50,12.80
2019,09,30,18,51,12.70
2019,09,30,18,52,12.70
2019,09,30,18,53,12.70
2019,09,30,18,54,12.60
2019,09,30,18,55,12.60
2019,09,30,18,56,12.50
2019,09,30,18,57,12.40
2019,09,30,18,58,12.30
2019,09,30,18,59,12.20
2019,09,30,19,00,12.20
2019,09,30,19,01,12.10
2019,09,30,19,02,12.00
2019,09,30,19,03,11.90
2019,09,30,19,04,11.90
2019,09,30,19,05,11.80
2019,09,30,19,06,11.80
2019,09,30,19,07,11.70
2019,09,30,19,08,11.70
2019,09,30,19,09,11.70
2019,09,30,19,10,11.70
2019,09,30,19,11,11.60